ASTROSAT

Last updated on Thu Sep 24 2026 00:03:53 GMT+0000 (Coordinated Universal Time)

1 40930U 15052A 26266.30574229 .00001381 00000+0 85990-4 0 9990 2 40930 5.9957 168.9992 0008008 352.1879 7.8124 14.82652953594418
UTC large
Height (km)
Speed (km/s)
/
Latitude / Longitude
Inclination (degrees)
Orbital Period (minutes)
Azimuth
Elevation
Range (km)
Doppler Factor

Next 0 passes for location: London (51.5072 / 0.1276)

No passes found over London.
ASTROSAT